Camarillo, CA

5:04 AM PDT on July 22, 2017 (GMT -0700)
Camarillo

Weather History for KCMA - January, 2014

Change the Weather History Date:

Tuesday, January 21, 2014

  Actual Average Record
Temperature  
Mean Temperature 65 °F 54 °F  
Max Temperature 84 °F 66 °F 84 °F (2013)
Min Temperature 45 °F 43 °F 33 °F (1966)
Degree Days  
Heating Degree Days 0 11  
Month to date heating degree days 132 231  
Since 1 July heating degree days 643 912  
Cooling Degree Days 0 0  
Month to date cooling degree days 27 0  
Year to date cooling degree days 27 0  
Growing Degree Days 14 (Base 50)    
Moisture  
Dew Point 34 °F    
Average Humidity 36    
Maximum Humidity 65    
Minimum Humidity 7    
Precipitation  
Precipitation 0.00 in 0.11 in 1.05 in (1969)
Month to date precipitation 0.00 2.76  
Year to date precipitation 0.00 2.76  
Since 1 July precipitation 0.82  
Sea Level Pressure  
Sea Level Pressure 30.13 in    
Wind  
Wind Speed 4 mph (NE)    
Max Wind Speed 18 mph    
Max Gust Speed 23 mph    
Visibility 10 miles    
Events      
T = Trace of Precipitation, MM = Missing Value Source: NWS Daily Summary

Daily Weather History Graph

Daily Weather History Graph

Search for Another Location

Airport or City:

Trip Planner

Search our weather history database for the weather conditions in past years. The results will help you decide how hot, cold, wet, or windy it might be!

Date:

Astronomy

Jan. 21, 2014 Rise Set
Actual Time 7:00 AM PST 5:15 PM PST
Civil Twilight 6:33 AM PST 5:42 PM PST
Nautical Twilight 6:02 AM PST 6:13 PM PST
Astronomical Twilight 5:32 AM PST 6:43 PM PST
Moon 10:36 PM PST (1/21) 9:47 AM PST (1/21)
Length of Visible Light 11h 09m
Length of Day
10h 15m
Waning Gibbous, 73% of the Moon is Illuminated
Jan 21
Waning Gibbous
Jan 23
Last Quarter
Jan 30
New
Feb 6
First Quarter
Feb 14
Full

Hourly Weather History & Observations

Time (PST) Temp. Dew Point Humidity Pressure Visibility Wind Dir Wind Speed Gust Speed Precip Events Conditions
12:55 AM 46.9 °F 34.0 °F 61% 30.18 in 10.0 mi ENE 3.5 mph - N/A   Clear
1:55 AM 46.9 °F 34.0 °F 61% 30.18 in 10.0 mi Calm Calm - N/A   Clear
2:55 AM 46.9 °F 34.0 °F 61% 30.18 in 10.0 mi NE 3.5 mph - N/A   Clear
3:55 AM 46.9 °F 32.0 °F 56% 30.16 in 10.0 mi ENE 3.5 mph - N/A   Clear
4:55 AM 46.9 °F 32.0 °F 56% 30.15 in 10.0 mi NE 3.5 mph - N/A   Clear
5:55 AM 52.0 °F 26.1 °F 37% 30.16 in 10.0 mi North 3.5 mph - N/A   Clear
6:55 AM 52.0 °F 25.0 °F 35% 30.16 in 10.0 mi NNE 4.6 mph - N/A   Clear
7:55 AM 57.9 °F 24.1 °F 27% 30.17 in 10.0 mi NNE 4.6 mph - N/A   Clear
8:55 AM 69.1 °F 21.0 °F 16% 30.17 in 10.0 mi ENE 5.8 mph - N/A   Clear
9:55 AM 77.0 °F 15.1 °F 10% 30.17 in 10.0 mi East 13.8 mph - N/A   Clear
10:55 AM 81.0 °F 10.9 °F 7% 30.16 in 10.0 mi ENE 17.3 mph - N/A   Clear
11:55 AM 82.0 °F 12.0 °F 7% 30.13 in 10.0 mi ENE 15.0 mph - N/A   Clear
12:55 PM 66.9 °F 54.0 °F 63% 30.10 in 10.0 mi SSW 8.1 mph - N/A   Clear
1:55 PM 72.0 °F 48.0 °F 43% 30.09 in 10.0 mi SW 3.5 mph - N/A   Clear
2:55 PM 72.0 °F 39.0 °F 30% 30.09 in 10.0 mi West 8.1 mph - N/A   Clear
3:55 PM 66.9 °F 42.1 °F 40% 30.10 in 10.0 mi Variable 4.6 mph - N/A   Clear
4:55 PM 64.0 °F 46.9 °F 54% 30.11 in 10.0 mi Calm Calm - N/A   Clear
5:55 PM 63.0 °F 46.0 °F 54% 30.11 in 10.0 mi Calm Calm - N/A   Clear
6:55 PM 60.1 °F 42.1 °F 51% 30.11 in 10.0 mi ENE 3.5 mph - N/A   Clear
7:55 PM 57.0 °F 43.0 °F 59% 30.10 in 10.0 mi Calm Calm - N/A   Clear
8:55 PM 57.9 °F 42.1 °F 56% 30.10 in 10.0 mi Calm Calm - N/A   Clear
9:55 PM 55.0 °F 42.1 °F 62% 30.10 in 10.0 mi Calm Calm - N/A   Clear
10:55 PM 57.0 °F 39.9 °F 53% 30.09 in 10.0 mi Calm Calm - N/A   Clear
11:55 PM 57.0 °F 39.9 °F 53% 30.08 in 10.0 mi Calm Calm - N/A   Clear